User: anonymous   Login
Location: *
(38.9555°S, 57.3572°E)
Time: 22:38:37
(UTC+00:00)
Language:

Okean-O - Orbit

View from above orbital plane
View from above orbital plane
View from above satellite
View from above satellite

Ground track
Ground track

The orbit data is extracted from the following two-line orbital elements,

1 25860U 99039A   20270.33899818  .00000055  00000-0  15466-4 0  9997
2 25860  98.2107 291.0737 0000786  92.4167 267.7132 14.76679122140490
Epoch (UTC): 26 September 2020 08:08:09
Eccentricity: 0.0000786
inclination: 98.2107°
perigee height: 639 km
apogee height: 640 km
right ascension of ascending node: 291.0737°
argument of perigee: 92.4167°
revolutions per day: 14.76679122
mean anomaly at epoch: 267.7132°
orbit number at epoch: 14049

The dashed part of the orbit path shows where the satellite is in the earth's shadow,  

DLR